Other Public Products
Issued by NWS Grand Forks, ND

Home | Current Version | Previous Version | Text Only | Print | Product List | Glossary On
Versions: 1 2 3 4 5 6 7 8 9 10 11 12 13 14 15 16 17 18 19 20 21 22 23 24 25 26 27 28 29 30 31 32 33 34 35 36 37 38 39 40 41 42 43 44 45 46 47 48 49 50
000
FPUS83 KFGF 201010
OPUFGF
PRAIRIE TO PINES WEATHER ROUNDUP
NATIONAL WEATHER SERVICE EASTERN NORTH DAKOTA/GRAND FORKS ND
400 AM CST FRI JAN 20 2017

 **SATELLITE DATA USED TO AUGMENT SKY COVER AT AUTOMATED STATIONS**
 *****  WEATHER ACROSS EASTERN NORTH DAKOTA  *****

CITY           SKY/WX    TMP DP  RH WIND       PRES   REMARKS
GRAND FORKS    CLOUDY    35  33  92 S10       29.54S FOG
GRAND FORKS AF CLOUDY    32  32 100 S9        29.53S FOG     WCI  24
GRAND CITY NWS NOT AVBL
BUXTON         NOT AVBL
DEVILS LAKE    FOG       29  29 100 S7        29.47F VSB 3/4 WCI  22
FARGO          CLOUDY    49  36  61 SE12      29.54F HAZE
WAHPETON ARPT  CLOUDY    34  32  93 SE10      29.56S
$$

 *****  WEATHER ACROSS CENTRAL AND WESTERN NORTH DAKOTA  *****

CITY           SKY/WX    TMP DP  RH WIND       PRES   REMARKS
JAMESTOWN      FOG       33  33 100 SE9       29.47F VSB 1/2
BISMARCK       FOG       20  19  96 NW3       29.46S VSB 1/4
MINOT          FAIR      20  16  84 SW9       29.38F WCI   9
MINOT AFB      FAIR      14  11  87 W5        29.38F WCI   6
GARRISON         N/A      9   6  88 E3        29.40F
WILLISTON      FAIR      16  14  92 S3        29.42S FOG
DICKINSON      FAIR      19  16  88 W7        29.37F WCI  10
HETTINGER      FAIR      13  11  92 W5        29.40S WCI   5
$$

 *****  OTHER OBSERVATIONS NORTHEAST NORTH DAKOTA  *****

CITY           SKY/WX    TMP DP  RH WIND       PRES   REMARKS
WALHALLA       NOT AVBL
LANGDON        NOT AVBL
CAVALIER         N/A     32  32 100 S9        29.51F FOG     WCI  24
GRAFTON        FOG       34  34 100 SE12      29.55S VSB 1/4
CANDO          NOT AVBL
FORT TOTTEN      N/A     29  29 100 S6        29.95S WCI  23
ROLLA            N/A    N/A N/A N/A MISG        N/A
RUGBY          FOG       16  16 100 S15G21    29.44F VSB 1/4 WCI   1
 ***** THE ABOVE OBSERVATIONS ARE NON NWS ARE NOT QUALITY
        CONTROLLED AND MAY MIS-REPORT RAIN FOR SNOW...
$$

 *****  OTHER OBSERVATIONS SOUTHEAST NORTH DAKOTA *****

CITY           SKY/WX    TMP DP  RH WIND       PRES   REMARKS
COOPERSTOWN    FOG       34  34 100 S10       29.50F VSB 1
VALLEY CITY    FOG       34  34 100 S8        29.51F VSB 1
OAKES          NOT AVBL
GWINNER        CLOUDY    34  34 100 SE9       29.51F
SHEYENNE NWR     N/A     34  33  97 SE7       29.95S
BUFFALO        NOT AVBL
WYNDMERE       NOT AVBL
 ***** THE ABOVE OBSERVATIONS ARE NON NWS ARE NOT QUALITY
       CONTROLLED AND MAY MIS-REPORT RAIN FOR SNOW...
$$

  *****  WEATHER ACROSS NORTHERN MINNESOTA  *****

CITY           SKY/WX    TMP DP  RH WIND       PRES   REMARKS
FLAG ISLAND    CLOUDY    34  34 100 S12       29.59S FOG
WARROAD        CLOUDY    34  30  86 S6        29.60S FOG
ROSEAU         CLOUDY    36  30  80 S6        29.58F FOG
HALLOCK        CLOUDY    34  34 100 S12       29.54S FOG
THF RVR FALLS  CLOUDY    34  33  96 SE10      29.58S FOG
HALSTAD        NOT AVBL
FOSSTON        CLOUDY    34  34 100 SE8       29.58F
BAUDETTE       FOG       35  34  96 S6        29.60S VSB 1
WASKISH        FOG       36  36 100 CALM      29.61F VSB 3/4
CROOKSTON      CLOUDY    34  34 100 SE12      29.56F FOG
$$
  *****  WEATHER ACROSS CENTRAL AND WEST MINNESOTA  *****

CITY           SKY/WX    TMP DP  RH WIND       PRES   REMARKS
BEMIDJI        CLOUDY    33  33 100 CALM      29.60S FOG
PARK RAPIDS    FOG       34  31  88 E5        29.58S VSB 1/2
WADENA         FOG       32  32 100 SE6       29.59S VSB 1/4
DETROIT LAKES  FOG       34  34 100 SE6       29.57F VSB 3/4
MOORHEAD       CLOUDY    36  34  93 SE8       29.56F FOG
FERGUS FALLS   CLOUDY    36  36 100 SE9       29.60F FOG
ELBOW LAKE     CLOUDY    33  33 100 SE8       29.57F FOG
MORRIS MN      FOG       34  34 100 SE9       29.56F VSB 1/4
STAPLES        CLOUDY    34  34 100 SE3       29.61S FOG
WHEATON        CLOUDY    39  39 100 E10       29.57F FOG
$$
  *****  WEATHER ELSEWHERE ACROSS MINNESOTA  *****

CITY           SKY/WX    TMP DP  RH WIND       PRES   REMARKS
DULUTH         CLOUDY    35  32  88 S8        29.64F
INTRNTL FALLS  CLOUDY    32  31  96 CALM      29.62F FOG
ELY            FAIR      28  28 100 S5        29.66R FOG     WCI  23
CLOQUET        CLOUDY    34  30  86 E3        29.64F FOG
BRAINERD       CLOUDY    34  34 100 SE6       29.62S FOG
HIBBING        CLOUDY    25  24  96 CALM      29.64S FOG
ALEXANDRIA     FOG       33  33 100 SE7       29.59S VSB 3/4
SAINT CLOUD    LGT RAIN  34  34 100 SE8       29.62S FOG
MINNEAPOLIS    CLOUDY    35  34  96 SE5       29.64F FOG
$$

  *****  WEATHER ACROSS SOUTH DAKOTA  *****

CITY           SKY/WX    TMP DP  RH WIND       PRES   REMARKS
SIOUX FALLS    CLOUDY    37  37 100 S7        29.52F FOG
BROOKINGS      CLOUDY    35  34  96 SE10      29.51F FOG
WATERTOWN      CLOUDY    35  34  96 SE12      29.49F FOG
HURON          CLOUDY    37  37 100 SE9       29.46F
SISSETON         N/A     34  34 100 SE10      29.52F
ABERDEEN       CLOUDY    34  32  92 S9        29.47F FOG
MITCHELL       CLOUDY    38  38 100 S8        29.47F
PIERRE         FOG       21  20  96 W5        29.41F VSB 1/4 WCI  15
MOBRIDGE       FOG       25  21  85 CALM      29.39F VSB 1/2
RAPID CITY     FAIR      27  19  72 NW9       29.38F WCI  18
$$

  *****  SOME WEATHER IN NEARBY STATES *****

CITY           SKY/WX    TMP DP  RH WIND       PRES   REMARKS
GLASGOW MT     MOCLDY    26  23  88 W9        29.44R WCI  17
GREAT FALLS MT FAIR      34  26  72 SW9       29.46S
CHEYENNE WY    FAIR      34  20  56 NW7       29.46F
SCOTTSBLUFF NE FAIR      28  22  78 NW6       29.46F WCI  22
OMAHA NE       FOG       37  34  89 CALM      29.58F VSB 1/2
DES MOINES IA  FOG       37  37 100 CALM      29.61F VSB 3/4
DAVENPORT IA   FOG       36  36 100 E5        29.63F VSB 1/4
CHICAGO IL     DRIZZLE   38  37  97 NE9       29.64F FOG
EAU CLAIRE WI  CLOUDY    35  34  96 E6        29.65F FOG
LA CROSSE WI   NOT AVBL
$$

  *****  SOME NATIONAL WEATHER *****

CITY           SKY/WX    TMP DP  RH WIND       PRES   REMARKS
LA GUARDIA NY  CLOUDY    41  31  67 NE6       30.01F
RALEIGH NC     CLOUDY    48  43  82 SE3       29.92F
ATLANTA GA     MOCLDY    63  61  93 S12       29.81F
NEW ORLEANS LA MOCLDY    64  63  96 S6        29.80F
OKLAHOMA CITY  FOG       45  45 100 S5        29.49F VSB 1/4
ALBUQUERQUE NM FAIR      37  29  72 S5        29.73F
SALT LAKE CITY FOG       30  28  92 NW5       29.66R VSB 1/4
LOS ANGELES CA CLOUDY    55  50  83 NW5       29.85S
BOISE ID       CLOUDY    37  31  78 SE14      29.57F
SEATTLE WA     MOCLDY    40  34  79 NE3       29.36F
$$

*** WEATHER ACROSS MANITOBA...SASKATCHEWAN AND ONTARIO ***
                ***ONTARIO***

CITY           SKY/WX    TMP DP  RH WIND       PRES   REMARKS
GERALDTON      FOG       34  34 100 SW8       29.67S VSB 3/4
THUNDER BAY    FOG       30  30 100 S6        29.71S VSB 3/8 WCI  24
SIOUX LOOKOUT  DRZL/FOG  36  34  93 S9        29.61R VSB 1/4
TORONTO        CLOUDY    34  32  93 E5        29.87F
BIG TROUT LK   FOG       18  18 100 CALM      29.54R VSB 1/4
PICKLE LAKE    NOT AVBL
DRYDEN         FOG       34  34 100 SW7       29.60S VSB 1/4
KENORA         FOG       34  34 100 SW13      29.58S VSB 3/8 WCI  25
$$
                *** MANITOBA***

CITY           SKY/WX    TMP DP  RH WIND       PRES   REMARKS
BRANDON        CLEAR     12   9  85 NW3       29.42S
DAUPHIN        CLEAR     25  23  93 W5        29.39S WCI  19
ISLAND LAKE    CLEAR     21  21 100 CALM      29.49R FOG
PILOT MOUND      N/A     18  16  93 S10         N/A  WCI   6
THE PAS        PTCLDY    27  25  93 NE6       29.38F WCI  20
THOMPSON       CLOUDY    28  28 100 E3        29.50R FOG
WINNIPEG       CLOUDY    32  32 100 S16G24    29.51S FOG     WCI  21
LYNN LAKE      CLOUDY    28  28 100 E12       29.43S WCI  18
CHURCHILL      FLURRIES  18  18 100 E12       29.65R WCI   5
GILLAM         CLOUDY    25  23  93 NE6       29.56R WCI  18
$$
                ***SASKATCHEWAN***

CITY           SKY/WX    TMP DP  RH WIND       PRES   REMARKS
ESTEVAN        PTCLDY    16  14  93 SW5       29.38F WCI   9
KINDERSLEY     MOCLDY    30  25  80 SW7       29.30R WCI  23
LLOYDMINSTER   MOCLDY    28  25  86 W14G20    29.27R WCI  17
PRINCE ALBERT  MOCLDY    21  19  93 E2        29.29R
REGINA         CLEAR     19  18  93 SE7       29.37S WCI  10
YORKTON        CLEAR     25  23  93 S7        29.36S WCC1F1C2F2C3F3C4F4C5F5C6F6C7F7C8F8C9F9CaFaCbFbCcFcCdFdCe!



USA.gov is the U.S. government's official web portal to all federal, state and local government web resources and services.